Home   Weather   Murmansk   Past weeks
Flag for Russia

Past Weather in Murmansk, Russia — Yesterday and Last 2 Weeks

Now
41 °F

Partly sunny.


Feels Like: 39 °F
Forecast: 49 / 30 °F
Wind: 3 mph from Northwest

Location: Murmansk Airport

Current Time: Apr 24, 2019 at 7:19:34 am

Latest Report: Apr 24, 2019 at 6:30 am


Visibility: N/A

Pressure: 30.09 "Hg

Humidity: 76%

Dew Point: 34 °F

Location of MurmanskLocation

Past Weather in Murmansk — Graph

°F

Murmansk Temperature Yesterday

Maximum temperature yesterday: 54 °F (at 2:30 pm)
Minimum temperature yesterday: 37 °F (at 12:30 am)
Average temperature yesterday: 45 °F

High & Low Weather Summary for the Past Weeks

 TemperatureHumidityPressure
High54 °F (Apr 23, 2:30 pm)93% (Apr 10, 5:00 am)30.60 "Hg (Apr 10, 5:00 am)
Low9 °F (Apr 10, 12:30 am)37% (Apr 18, 6:30 pm)29.71 "Hg (Apr 21, 9:30 pm)
Average37 °F65%30.24 "Hg
* Reported Apr 9 6:00 am — Apr 24 6:00 am, Murmansk. Weather by CustomWeather, © 2019

Note: Actual official high and low records may vary slightly from our data, if they occured in-between our weather recording intervals... More about our weather records

Advertising

Murmansk Weather History for the Previous 24 Hours

Scroll right to see more
 ConditionsComfort  
Time TempWeatherWind HumidityBarometerVisibility
6:00 am
Wed, Apr 24
41 °FPartly sunny.3 mph76%30.09 "HgN/A
5:30 am41 °FPartly sunny.3 mph76%30.07 "HgN/A
5:00 am41 °FPartly sunny.6 mph76%30.07 "HgN/A
4:30 am41 °FPartly sunny.8 mph76%30.07 "HgN/A
4:00 am43 °FPassing clouds.8 mph71%30.04 "HgN/A
3:30 am43 °FPassing clouds.6 mph71%30.04 "HgN/A
3:00 am43 °FPassing clouds.3 mph76%30.01 "HgN/A
2:30 am43 °FPassing clouds.3 mph76%30.01 "HgN/A
2:00 am43 °FPassing clouds.6 mph76%30.01 "HgN/A
1:30 am43 °FPassing clouds.3 mph76%30.01 "HgN/A
1:00 am43 °FPassing clouds.3 mph76%29.98 "HgN/A
12:00 am41 °FSprinkles. Passing clouds.1 mph81%29.98 "HgN/A
11:30 pm
Tue, Apr 23
39 °FSprinkles. Passing clouds.1 mph81%29.98 "Hg6 mi
11:00 pm39 °FLight rain. Clear.1 mph75%29.98 "HgN/A
10:30 pm41 °FClear.No wind70%29.95 "Hg10 mi
10:00 pm45 °FClear.1 mph66%29.95 "Hg10 mi
9:30 pm46 °FClear.3 mph62%29.95 "Hg10 mi
9:00 pm46 °FSunny.3 mph62%29.95 "Hg10 mi
8:30 pm46 °FSunny.1 mph62%29.95 "Hg10 mi
8:00 pm48 °FSunny.3 mph58%29.92 "Hg10 mi
7:30 pm48 °FSunny.6 mph58%29.92 "Hg10 mi
7:00 pm48 °FSunny.6 mph58%29.92 "Hg10 mi
6:30 pm50 °FSunny.6 mph54%29.92 "Hg10 mi
6:00 pm50 °FSunny.6 mph54%29.89 "Hg10 mi
5:30 pm50 °FSunny.8 mph54%29.89 "Hg10 mi
5:00 pm50 °FSunny.6 mph54%29.89 "Hg10 mi
4:30 pm50 °FPartly sunny.8 mph54%29.89 "HgN/A
4:00 pm52 °FSunny.10 mph50%29.86 "Hg10 mi
3:30 pm52 °FScattered clouds.13 mph50%29.86 "HgN/A
3:00 pm54 °FPartly sunny.10 mph47%29.86 "HgN/A
2:30 pm54 °FSunny.8 mph47%29.83 "Hg10 mi
2:00 pm52 °FPassing clouds.6 mph50%29.83 "HgN/A
1:30 pm52 °FPassing clouds.8 mph50%29.83 "HgN/A
1:00 pm52 °FPassing clouds.8 mph50%29.80 "HgN/A
12:30 pm52 °FSunny.8 mph50%29.80 "Hg10 mi
12:00 pm50 °FSunny.8 mph54%29.80 "Hg10 mi
11:30 am48 °FSunny.6 mph58%29.80 "Hg10 mi
11:00 am46 °FSunny.6 mph62%29.80 "Hg10 mi
10:30 am45 °FSunny.6 mph66%29.80 "Hg10 mi
10:00 am45 °FSunny.6 mph66%29.80 "Hg10 mi
9:30 am43 °FPassing clouds.3 mph71%29.77 "HgN/A
9:00 am43 °FPassing clouds.3 mph71%29.77 "HgN/A
8:30 am43 °FSunny.6 mph71%29.77 "Hg10 mi
8:00 am41 °FPassing clouds.3 mph76%29.77 "HgN/A
7:30 am39 °FSunny.1 mph81%29.77 "Hg10 mi
7:00 am41 °FSunny.6 mph76%29.77 "Hg10 mi
Weather by CustomWeather, © 2019

See weather overview